Location: Madrid
(40.4000°N, 3.6830°W)
Time: 18:13:03
(UTC+02:00)

ISS - Pass Details

Date: 13 August 2017
Orbit: 401 x 408 km, 51.6° (Epoch: 19 August)

Event Time Altitude Azimuth Distance (km) Brightness Sun altitude
Rises 22:43:17 0° 287° (WNW) 2,312 1.4 -15.8°
Reaches altitude 10° 22:46:29 10° 253° (WSW) 1,447 -0.5 -16.3°
Maximum altitude 22:47:40 12° 231° (SW) 1,352 -1.0 -16.4°
Drops below altitude 10° 22:48:52 10° 209° (SSW) 1,443 -1.1 -16.6°
Enters shadow 22:49:22 - 201° (SSW) 1,532 -1.1 -16.7°
